Montpelier, VT

4:14 AM EDT on April 30, 2017 (GMT -0400)
Knapp State

Weather History for KMPV - May, 2013

Change the Weather History Date:

Sunday, May 19, 2013

  Actual Average Record
Temperature  
Mean Temperature 54 °F 55 °F  
Max Temperature 67 °F 67 °F 90 °F (1962)
Min Temperature 40 °F 43 °F 28 °F (2009)
Degree Days  
Heating Degree Days 12 11  
Month to date heating degree days 251  
Since 1 July heating degree days 7955  
Cooling Degree Days 0 0  
Month to date cooling degree days 0 0  
Year to date cooling degree days 0 1  
Growing Degree Days 4 (Base 50)    
Moisture  
Dew Point 46 °F    
Average Humidity 69    
Maximum Humidity 93    
Minimum Humidity 45    
Precipitation  
Precipitation 0.27 in 0.11 in 1.63 in (1999)
Month to date precipitation 0.54 1.99  
Year to date precipitation 5.62 11.53  
Sea Level Pressure  
Sea Level Pressure 30.28 in    
Wind  
Wind Speed 6 mph (South)    
Max Wind Speed 20 mph    
Max Gust Speed 26 mph    
Visibility 9 miles    
Events Rain    
T = Trace of Precipitation, MM = Missing Value Source: NWS Daily Summary

Daily Weather History Graph

Daily Weather History Graph

Search for Another Location

Airport or City:

Trip Planner

Search our weather history database for the weather conditions in past years. The results will help you decide how hot, cold, wet, or windy it might be!

Date:

Astronomy

May. 19, 2013 Rise Set
Actual Time 5:19 AM EDT 8:14 PM EDT
Civil Twilight 4:45 AM EDT 8:49 PM EDT
Nautical Twilight 4:01 AM EDT 9:32 PM EDT
Astronomical Twilight 3:10 AM EDT 10:24 PM EDT
Moon 2:03 PM EDT (5/19) 1:54 AM EDT (5/19)
Length of Visible Light 16h 03m
Length of Day
14h 55m
Waxing Gibbous, 65% of the Moon is Illuminated
May 19
Waxing Gibbous
May 25
Full
May 31
Last Quarter
Jun 8
New
Jun 16
First Quarter

Hourly Weather History & Observations

Time (EDT) Temp. Dew Point Humidity Pressure Visibility Wind Dir Wind Speed Gust Speed Precip Events Conditions
12:51 AM 48.0 °F 39.0 °F 71% 30.31 in 10.0 mi Calm Calm - N/A   Overcast
1:51 AM 46.9 °F 39.0 °F 74% 30.30 in 10.0 mi Calm Calm - N/A   Partly Cloudy
2:51 AM 46.4 °F 39.2 °F 76% 30.30 in 10.0 mi Calm Calm - N/A   Overcast
3:51 AM 42.8 °F 37.4 °F 81% 30.31 in 10.0 mi Calm Calm - N/A   Partly Cloudy
4:51 AM 42.1 °F 37.9 °F 85% 30.33 in 10.0 mi Calm Calm - N/A   Clear
5:51 AM 41.0 °F 39.0 °F 93% 30.34 in 10.0 mi Calm Calm - N/A   Clear
6:51 AM 43.0 °F 39.9 °F 89% 30.35 in 10.0 mi Calm Calm - N/A   Clear
7:51 AM 51.1 °F 44.1 °F 77% 30.35 in 10.0 mi ENE 3.5 mph - N/A   Clear
8:51 AM 53.1 °F 45.0 °F 74% 30.35 in 10.0 mi Calm Calm - N/A   Clear
9:51 AM 60.1 °F 45.0 °F 57% 30.34 in 10.0 mi South 8.1 mph - N/A   Clear
10:51 AM 61.0 °F 46.0 °F 58% 30.34 in 10.0 mi SSW 6.9 mph - N/A   Clear
11:51 AM 63.0 °F 46.9 °F 56% 30.32 in 10.0 mi South 8.1 mph - N/A   Clear
12:51 PM 64.9 °F 46.0 °F 50% 30.30 in 10.0 mi South 12.7 mph 17.3 mph N/A   Clear
1:51 PM 66.9 °F 45.0 °F 45% 30.28 in 10.0 mi SE 10.4 mph - N/A   Clear
2:51 PM 64.0 °F 46.0 °F 52% 30.27 in 10.0 mi South 9.2 mph - N/A   Mostly Cloudy
3:51 PM 64.9 °F 48.0 °F 54% 30.26 in 10.0 mi SSE 9.2 mph - N/A   Overcast
4:51 PM 57.0 °F 54.0 °F 89% 30.27 in 5.0 mi South 9.2 mph - 0.01 in Rain Light Rain
5:51 PM 57.0 °F 53.1 °F 87% 30.26 in 9.0 mi South 8.1 mph - 0.03 in Rain Light Rain
6:51 PM 55.9 °F 53.1 °F 90% 30.25 in 10.0 mi South 8.1 mph - 0.02 in Rain Light Rain
7:51 PM 54.0 °F 51.1 °F 90% 30.25 in 9.0 mi South 8.1 mph - 0.02 in Rain Light Rain
8:51 PM 53.1 °F 51.1 °F 93% 30.25 in 9.0 mi South 8.1 mph - 0.02 in Rain Light Rain
9:13 PM 53.6 °F 51.8 °F 94% 30.23 in 5.0 mi South 10.4 mph 16.1 mph 0.03 in Rain Light Rain
9:28 PM 53.6 °F 51.8 °F 94% 30.22 in 5.0 mi South 10.4 mph - 0.05 in Rain Light Rain
9:51 PM 53.1 °F 51.1 °F 93% 30.23 in 7.0 mi South 10.4 mph - 0.06 in Rain Light Rain
10:51 PM 53.1 °F 51.1 °F 93% 30.19 in 8.0 mi South 10.4 mph - 0.08 in Rain Light Rain
11:22 PM 53.6 °F 51.8 °F 94% 30.18 in 8.0 mi South 10.4 mph - 0.00 in Rain Light Rain
11:51 PM 53.1 °F 51.1 °F 93% 30.18 in 7.0 mi South 11.5 mph - 0.02 in Rain Light Rain